| time (UTC) | temp F | wind direction | speed MPH | gust MPH | rain 1hr in | rain 24hr in | rain mn in | humidity % | barometer mb |
| 20260509123046 | 50 | 158 | 0.0 | 0.0 | 0.00 | 0.00 | 0.00 | 91 | 1023.3 |
| 20260509121544 | 50 | 158 | 0.0 | 0.0 | 0.00 | 0.00 | 0.00 | 91 | 1023.3 |
| 20260509120050 | 50 | 158 | 0.0 | 0.0 | 0.00 | 0.00 | 0.00 | 91 | 1023.4 |
| 20260509114542 | 49 | 169 | 0.0 | 1.0 | 0.00 | 0.00 | 0.00 | 91 | 1023.4 |
| 20260509113042 | 49 | 173 | 0.0 | 1.0 | 0.00 | 0.00 | 0.00 | 91 | 1023.5 |
| 20260509111540 | 49 | 160 | 0.0 | 1.0 | 0.00 | 0.00 | 0.00 | 91 | 1023.4 |
| 20260509110040 | 50 | 164 | 0.0 | 1.0 | 0.00 | 0.00 | 0.00 | 90 | 1023.3 |
| 20260509104541 | 50 | 160 | 0.0 | 2.0 | 0.00 | 0.00 | 0.00 | 90 | 1023.4 |
| 20260509103036 | 50 | 160 | 0.0 | 1.0 | 0.00 | 0.00 | 0.00 | 90 | 1023.3 |
| 20260509101545 | 51 | 174 | 1.0 | 3.0 | 0.00 | 0.00 | 0.00 | 89 | 1023.4 |
| 20260509100034 | 51 | 174 | 0.0 | 2.0 | 0.00 | 0.00 | 0.00 | 88 | 1023.2 |
| 20260509094538 | 51 | 169 | 0.0 | 1.0 | 0.00 | 0.00 | 0.00 | 87 | 1023.2 |
| 20260509093045 | 51 | 128 | 0.0 | 0.0 | 0.00 | 0.00 | 0.00 | 88 | 1023.2 |
| 20260509091536 | 51 | 128 | 0.0 | 1.0 | 0.00 | 0.00 | 0.00 | 89 | 1023.2 |
| 20260509090032 | 51 | 105 | 0.0 | 1.0 | 0.00 | 0.00 | 0.00 | 88 | 1023.2 |
| 20260509084543 | 51 | 136 | 0.0 | 2.0 | 0.00 | 0.00 | 0.00 | 88 | 1023.2 |
| 20260509083030 | 51 | 127 | 1.0 | 3.0 | 0.00 | 0.00 | 0.00 | 88 | 1023.4 |
| 20260509081537 | 50 | 158 | 0.0 | 2.0 | 0.00 | 0.00 | 0.00 | 87 | 1023.4 |
| 20260509080040 | 50 | 169 | 0.0 | 1.0 | 0.00 | 0.00 | 0.00 | 85 | 1023.4 |
| 20260509074525 | 51 | 145 | 0.0 | 0.0 | 0.00 | 0.00 | 0.00 | 84 | 1023.3 |
| 20260509073023 | 51 | 156 | 0.0 | 1.0 | 0.00 | 0.00 | 0.00 | 83 | 1023.3 |
| 20260509071520 | 52 | 167 | 0.0 | 1.0 | 0.00 | 0.00 | 0.00 | 82 | 1023.3 |
| 20260509070018 | 52 | 142 | 0.0 | 1.0 | 0.00 | 0.00 | 0.00 | 82 | 1023.3 |
| 20260509064518 | 52 | 138 | 0.0 | 0.0 | 0.00 | 0.00 | 0.00 | 82 | 1023.3 |
| 20260509063018 | 52 | 174 | 0.0 | 0.0 | 0.00 | 0.00 | 0.00 | 82 | 1023.3 |
| 20260509061517 | 52 | 174 | 0.0 | 0.0 | 0.00 | 0.00 | 0.00 | 80 | 1023.2 |
| 20260509060017 | 53 | 183 | 0.0 | 1.0 | 0.00 | 0.00 | 0.00 | 80 | 1023.3 |
| 20260509054518 | 53 | 101 | 0.0 | 1.0 | 0.00 | 0.00 | 0.00 | 80 | 1023.3 |
| 20260509053023 | 53 | 206 | 0.0 | 2.0 | 0.00 | 0.00 | 0.00 | 79 | 1023.2 |
| 20260509051521 | 53 | 224 | 0.0 | 1.0 | 0.00 | 0.00 | 0.00 | 79 | 1023.3 |
| 20260509050017 | 53 | 138 | 0.0 | 1.0 | 0.00 | 0.00 | 0.00 | 78 | 1023.2 |
| 20260509044513 | 53 | 283 | 0.0 | 1.0 | 0.00 | 0.00 | 0.00 | 78 | 1023.2 |
| 20260509043012 | 53 | 123 | 0.0 | 3.0 | 0.00 | 0.00 | 0.00 | 78 | 1023.1 |
| 20260509041511 | 53 | 252 | 0.0 | 3.0 | 0.00 | 0.00 | 0.00 | 77 | 1022.9 |
| 20260509040010 | 53 | 259 | 1.0 | 3.0 | 0.00 | 0.00 | 0.00 | 77 | 1022.9 |
| 20260509034509 | 53 | 250 | 0.0 | 3.0 | 0.00 | 0.00 | 0.00 | 77 | 1022.8 |
| 20260509033007 | 53 | 220 | 0.0 | 2.0 | 0.00 | 0.00 | 0.00 | 76 | 1022.7 |
| 20260509031506 | 53 | 153 | 0.0 | 2.0 | 0.00 | 0.00 | 0.00 | 76 | 1022.6 |
| 20260509030007 | 54 | 252 | 1.0 | 3.0 | 0.00 | 0.00 | 0.00 | 75 | 1022.5 |
| 20260509024503 | 54 | 271 | 0.0 | 3.0 | 0.00 | 0.00 | 0.00 | 74 | 1022.4 |
| 20260509023003 | 55 | 144 | 0.0 | 3.0 | 0.00 | 0.00 | 0.00 | 73 | 1022.4 |
| 20260509021502 | 56 | 209 | 1.0 | 5.0 | 0.00 | 0.00 | 0.00 | 71 | 1022.4 |
| 20260509020002 | 56 | 203 | 0.0 | 3.0 | 0.00 | 0.00 | 0.00 | 72 | 1022.4 |
| 20260509014502 | 57 | 224 | 0.0 | 5.0 | 0.00 | 0.00 | 0.00 | 72 | 1022.4 |
| 20260509013001 | 55 | 120 | 1.0 | 4.0 | 0.00 | 0.00 | 0.00 | 75 | 1022.4 |
| 20260509011600 | 55 | 319 | 0.0 | 5.0 | 0.00 | 0.00 | 0.00 | 74 | 1022.4 |
| 20260509010059 | 56 | 269 | 1.0 | 4.0 | 0.00 | 0.00 | 0.00 | 72 | 1022.3 |
| 20260509004621 | 56 | 170 | 1.0 | 6.0 | 0.00 | 0.00 | 0.00 | 74 | 1022.4 |
| 20260509003058 | 56 | 252 | 1.0 | 6.0 | 0.00 | 0.00 | 0.00 | 74 | 1022.3 |
| 20260509001557 | 57 | 302 | 2.0 | 8.0 | 0.00 | 0.00 | 0.00 | 71 | 1022.4 |
| 20260509000056 | 58 | 115 | 1.0 | 7.0 | 0.00 | 0.00 | 0.00 | 70 | 1022.4 |
| 20260508234553 | 57 | 349 | 2.0 | 7.0 | 0.00 | 0.00 | 0.00 | 72 | 1022.3 |
| 20260508233106 | 56 | 160 | 1.0 | 6.0 | 0.00 | 0.00 | 0.00 | 74 | 1022.3 |
| 20260508231556 | 56 | 250 | 1.0 | 6.0 | 0.00 | 0.00 | 0.00 | 75 | 1022.4 |
| 20260508230056 | 55 | 220 | 2.0 | 7.0 | 0.00 | 0.00 | 0.00 | 76 | 1022.3 |
| 20260508224649 | 56 | 250 | 1.0 | 5.0 | 0.00 | 0.00 | 0.00 | 77 | 1022.1 |
| 20260508223049 | 55 | 262 | 3.0 | 7.0 | 0.00 | 0.00 | 0.00 | 76 | 1022.1 |
| 20260508221548 | 56 | 207 | 2.0 | 7.0 | 0.00 | 0.00 | 0.00 | 75 | 1022.2 |
| 20260508220047 | 56 | 271 | 2.0 | 8.0 | 0.00 | 0.00 | 0.00 | 77 | 1022.0 |
| 20260508214546 | 54 | 279 | 2.0 | 6.0 | 0.00 | 0.00 | 0.00 | 77 | 1022.1 |
| 20260508213046 | 54 | 155 | 0.0 | 7.0 | 0.00 | 0.00 | 0.00 | 80 | 1022.0 |
| 20260508211542 | 54 | 242 | 1.0 | 11.0 | 0.00 | 0.00 | 0.00 | 79 | 1021.9 |
| 20260508210042 | 55 | 155 | 2.0 | 7.0 | 0.00 | 0.00 | 0.00 | 78 | 1021.8 |
| 20260508204548 | 54 | 139 | 2.0 | 8.0 | 0.00 | 0.00 | 0.00 | 79 | 1021.7 |
| 20260508203050 | 54 | 111 | 1.0 | 6.0 | 0.00 | 0.00 | 0.00 | 80 | 1021.7 |
| 20260508201538 | 54 | 214 | 3.0 | 8.0 | 0.00 | 0.00 | 0.00 | 78 | 1021.6 |
| 20260508200047 | 56 | 1 | 0.0 | 9.0 | 0.00 | 0.00 | 0.00 | 77 | 1021.4 |
| 20260508194531 | 55 | 227 | 3.0 | 6.0 | 0.00 | 0.00 | 0.00 | 78 | 1021.2 |
| 20260508193028 | 54 | 120 | 0.0 | 7.0 | 0.00 | 0.00 | 0.00 | 78 | 1021.1 |
| 20260508191534 | 54 | 143 | 2.0 | 6.0 | 0.00 | 0.00 | 0.00 | 77 | 1021.1 |
| 20260508190026 | 54 | 126 | 2.0 | 8.0 | 0.00 | 0.00 | 0.00 | 78 | 1021.0 |
| 20260508184525 | 54 | 138 | 1.0 | 5.0 | 0.00 | 0.00 | 0.00 | 78 | 1020.8 |
| 20260508183023 | 54 | 252 | 1.0 | 9.0 | 0.00 | 0.00 | 0.00 | 80 | 1020.7 |
| 20260508181522 | 53 | 264 | 2.0 | 6.0 | 0.00 | 0.00 | 0.00 | 81 | 1020.6 |
| 20260508180020 | 52 | 162 | 1.0 | 4.0 | 0.00 | 0.00 | 0.00 | 83 | 1020.3 |
| 20260508174525 | 52 | 134 | 2.0 | 8.0 | 0.00 | 0.00 | 0.00 | 82 | 1020.3 |
| 20260508173017 | 52 | 98 | 1.0 | 7.0 | 0.00 | 0.00 | 0.00 | 82 | 1020.1 |
| 20260508171524 | 53 | 250 | 2.0 | 6.0 | 0.00 | 0.00 | 0.00 | 81 | 1019.9 |
| 20260508170014 | 53 | 136 | 0.0 | 6.0 | 0.00 | 0.00 | 0.00 | 81 | 1019.6 |
| 20260508164511 | 53 | 220 | 2.0 | 5.0 | 0.00 | 0.00 | 0.00 | 81 | 1019.4 |
| 20260508163010 | 53 | 172 | 0.0 | 6.0 | 0.00 | 0.00 | 0.00 | 81 | 1019.3 |
| 20260508161509 | 54 | 156 | 2.0 | 5.0 | 0.00 | 0.00 | 0.00 | 81 | 1019.1 |
| 20260508160013 | 53 | 181 | 1.0 | 7.0 | 0.00 | 0.00 | 0.00 | 83 | 1019.0 |
| 20260508154504 | 52 | 182 | 1.0 | 5.0 | 0.00 | 0.00 | 0.00 | 85 | 1019.2 |
| 20260508153003 | 51 | 149 | 1.0 | 3.0 | 0.00 | 0.00 | 0.00 | 86 | 1019.0 |
| 20260508151604 | 51 | 120 | 1.0 | 5.0 | 0.00 | 0.00 | 0.00 | 85 | 1018.9 |
| 20260508150057 | 51 | 127 | 0.0 | 2.0 | 0.00 | 0.00 | 0.00 | 86 | 1018.8 |
| 20260508144555 | 51 | 226 | 0.0 | 3.0 | 0.00 | 0.00 | 0.00 | 88 | 1018.8 |
| 20260508143057 | 50 | 123 | 1.0 | 4.0 | 0.00 | 0.00 | 0.00 | 88 | 1018.3 |
| 20260508141551 | 50 | 214 | 0.0 | 3.0 | 0.00 | 0.00 | 0.00 | 90 | 1018.2 |
| 20260508140054 | 49 | 138 | 0.0 | 3.0 | 0.00 | 0.00 | 0.00 | 91 | 1018.0 |
| 20260508134551 | 49 | 260 | 0.0 | 3.0 | 0.00 | 0.00 | 0.00 | 91 | 1017.8 |
| 20260508133048 | 49 | 130 | 0.0 | 4.0 | 0.00 | 0.00 | 0.00 | 92 | 1017.7 |
| 20260508131547 | 49 | 278 | 0.0 | 5.0 | 0.00 | 0.00 | 0.00 | 92 | 1017.6 |
| 20260508130058 | 49 | 144 | 1.0 | 6.0 | 0.00 | 0.00 | 0.00 | 93 | 1017.5 |
| 20260508124548 | 49 | 221 | 1.0 | 6.0 | 0.00 | 0.00 | 0.00 | 92 | 1017.5 |